Time,TemperatureF,DewpointF,PressureIn,WindDirection,WindDirectionDegrees,WindSpeedMPH,WindSpeedGustMPH,Humidity,HourlyPrecipIn,Conditions,Clouds,dailyrainin,SoftwareType,DateUTC
2013-09-18 00:01:00,60.7,57.8,30.20,NW,307,0.0,1.0,90,0.00,,---,0.00,VWS V14.00,2013-09-18 04:01:00,
2013-09-18 00:06:00,60.6,57.7,30.20,NW,307,0.0,1.0,90,0.00,,---,0.00,VWS V14.00,2013-09-18 04:06:00,
2013-09-18 00:11:00,60.5,57.6,30.20,NW,306,0.0,2.0,90,0.00,,---,0.00,VWS V14.00,2013-09-18 04:11:00,
2013-09-18 00:16:00,60.5,57.6,30.20,NW,307,1.0,2.0,90,0.00,,---,0.00,VWS V14.00,2013-09-18 04:16:00,
2013-09-18 00:21:00,60.5,57.6,30.20,NW,306,0.0,2.0,90,0.00,,---,0.00,VWS V14.00,2013-09-18 04:21:00,
2013-09-18 00:26:00,60.6,57.7,30.20,NW,306,0.0,2.0,90,0.00,,---,0.00,VWS V14.00,2013-09-18 04:26:00,
2013-09-18 00:31:00,60.6,57.7,30.20,NW,306,0.0,2.0,90,0.00,,---,0.00,VWS V14.00,2013-09-18 04:31:00,
2013-09-18 00:36:00,60.7,58.1,30.20,NW,306,0.0,2.0,91,0.00,,---,0.00,VWS V14.00,2013-09-18 04:36:00,
2013-09-18 00:41:00,60.7,58.1,30.20,NW,319,0.0,2.0,91,0.00,,---,0.00,VWS V14.00,2013-09-18 04:41:00,
2013-09-18 00:46:00,60.6,57.7,30.20,West,278,0.0,3.0,90,0.00,,---,0.00,VWS V14.00,2013-09-18 04:46:00,
2013-09-18 00:51:00,60.6,57.7,30.20,SW,232,0.0,3.0,90,0.00,,---,0.00,VWS V14.00,2013-09-18 04:51:00,
2013-09-18 00:56:00,60.6,57.3,30.20,SW,232,0.0,3.0,89,0.00,,---,0.00,VWS V14.00,2013-09-18 04:56:00,
2013-09-18 01:01:00,60.6,57.3,30.20,SW,232,0.0,3.0,89,0.00,,---,0.00,VWS V14.00,2013-09-18 05:01:00,
2013-09-18 01:06:00,60.6,57.3,30.20,SW,234,0.0,3.0,89,0.00,,---,0.00,VWS V14.00,2013-09-18 05:06:00,
2013-09-18 01:11:00,60.5,56.9,30.20,SW,215,0.0,4.0,88,0.00,,---,0.00,VWS V14.00,2013-09-18 05:11:00,
2013-09-18 01:16:00,60.5,56.9,30.19,WSW,256,0.0,5.0,88,0.00,,---,0.00,VWS V14.00,2013-09-18 05:16:00,
2013-09-18 01:21:00,60.6,56.7,30.19,NW,304,0.0,5.0,87,0.00,,---,0.00,VWS V14.00,2013-09-18 05:21:00,
2013-09-18 01:26:00,60.6,57.0,30.19,NW,304,0.0,5.0,88,0.00,,---,0.00,VWS V14.00,2013-09-18 05:26:00,
2013-09-18 01:31:00,60.6,57.0,30.20,NW,306,0.0,5.0,88,0.00,,---,0.00,VWS V14.00,2013-09-18 05:31:00,
2013-09-18 01:36:00,60.7,57.1,30.19,NW,305,1.0,5.0,88,0.00,,---,0.00,VWS V14.00,2013-09-18 05:36:00,
2013-09-18 01:41:00,60.7,57.1,30.19,WSW,250,2.0,3.0,88,0.00,,---,0.00,VWS V14.00,2013-09-18 05:41:00,
2013-09-18 01:46:00,60.6,57.0,30.19,WSW,251,0.0,3.0,88,0.00,,---,0.00,VWS V14.00,2013-09-18 05:46:00,
2013-09-18 01:51:00,60.7,57.1,30.19,WSW,252,0.0,3.0,88,0.00,,---,0.00,VWS V14.00,2013-09-18 05:51:00,
2013-09-18 01:56:00,60.7,57.1,30.19,WSW,252,0.0,3.0,88,0.00,,---,0.00,VWS V14.00,2013-09-18 05:56:00,
2013-09-18 02:01:00,60.7,57.1,30.19,SSW,200,2.0,3.0,88,0.00,,---,0.00,VWS V14.00,2013-09-18 06:01:00,
2013-09-18 02:06:00,60.7,57.1,30.19,SW,229,2.0,5.0,88,0.00,,---,0.00,VWS V14.00,2013-09-18 06:06:00,
2013-09-18 02:11:00,60.7,56.8,30.20,WNW,295,4.0,6.0,87,0.00,,---,0.00,VWS V14.00,2013-09-18 06:11:00,
2013-09-18 02:16:00,60.7,56.8,30.20,WNW,294,0.0,6.0,87,0.00,,---,0.00,VWS V14.00,2013-09-18 06:16:00,
2013-09-18 02:21:00,60.7,56.8,30.20,SW,230,0.0,6.0,87,0.00,,---,0.00,VWS V14.00,2013-09-18 06:21:00,
2013-09-18 02:26:00,60.7,56.8,30.20,West,263,0.0,6.0,87,0.00,,---,0.00,VWS V14.00,2013-09-18 06:26:00,
2013-09-18 02:31:00,60.7,56.8,30.20,West,263,0.0,6.0,87,0.00,,---,0.00,VWS V14.00,2013-09-18 06:31:00,
2013-09-18 02:36:00,60.7,56.8,30.20,NNW,340,0.0,6.0,87,0.00,,---,0.00,VWS V14.00,2013-09-18 06:36:00,
2013-09-18 02:41:00,60.7,56.8,30.19,WSW,239,0.0,4.0,87,0.00,,---,0.00,VWS V14.00,2013-09-18 06:41:00,
2013-09-18 02:46:00,60.7,56.8,30.19,WSW,252,0.0,4.0,87,0.00,,---,0.00,VWS V14.00,2013-09-18 06:46:00,
2013-09-18 02:51:00,60.7,56.8,30.19,WSW,252,0.0,4.0,87,0.00,,---,0.00,VWS V14.00,2013-09-18 06:51:00,
2013-09-18 02:56:00,60.7,56.8,30.19,WSW,252,0.0,4.0,87,0.00,,---,0.00,VWS V14.00,2013-09-18 06:56:00,
2013-09-18 03:01:00,60.7,56.8,30.19,WSW,252,0.0,4.0,87,0.00,,---,0.00,VWS V14.00,2013-09-18 07:01:00,
2013-09-18 03:06:00,60.6,56.7,30.19,SSE,163,0.0,4.0,87,0.00,,---,0.00,VWS V14.00,2013-09-18 07:06:00,
2013-09-18 03:11:00,60.6,56.7,30.19,WNW,290,0.0,2.0,87,0.00,,---,0.00,VWS V14.00,2013-09-18 07:11:00,
2013-09-18 03:16:00,60.6,56.7,30.19,WNW,290,0.0,2.0,87,0.00,,---,0.00,VWS V14.00,2013-09-18 07:16:00,
2013-09-18 03:21:00,60.5,56.6,30.19,WNW,290,0.0,2.0,87,0.00,,---,0.00,VWS V14.00,2013-09-18 07:21:00,
2013-09-18 03:26:00,60.5,56.6,30.19,WNW,290,0.0,3.0,87,0.00,,---,0.00,VWS V14.00,2013-09-18 07:26:00,
2013-09-18 03:31:00,60.5,56.6,30.19,WNW,289,0.0,3.0,87,0.00,,---,0.00,VWS V14.00,2013-09-18 07:31:00,
2013-09-18 03:36:00,60.5,56.6,30.19,WNW,288,0.0,3.0,87,0.00,,---,0.00,VWS V14.00,2013-09-18 07:36:00,
2013-09-18 03:41:00,60.5,56.9,30.19,WNW,289,0.0,0.0,88,0.00,,---,0.00,VWS V14.00,2013-09-18 07:41:00,
2013-09-18 03:46:00,60.4,56.5,30.19,West,279,0.0,0.0,87,0.00,,---,0.00,VWS V14.00,2013-09-18 07:46:00,
2013-09-18 03:51:00,60.4,56.5,30.19,West,274,0.0,1.0,87,0.00,,---,0.00,VWS V14.00,2013-09-18 07:51:00,
2013-09-18 03:56:00,60.4,56.5,30.19,West,273,0.0,2.0,87,0.00,,---,0.00,VWS V14.00,2013-09-18 07:56:00,
2013-09-18 04:01:00,60.4,56.8,30.19,West,273,1.0,2.0,88,0.00,,---,0.00,VWS V14.00,2013-09-18 08:01:00,
2013-09-18 04:06:00,60.3,56.7,30.19,WNW,288,0.0,3.0,88,0.00,,---,0.00,VWS V14.00,2013-09-18 08:06:00,
2013-09-18 04:11:00,60.3,56.7,30.19,WNW,288,0.0,0.0,88,0.00,,---,0.00,VWS V14.00,2013-09-18 08:11:00,
2013-09-18 04:16:00,60.3,56.7,30.19,SSW,198,0.0,1.0,88,0.00,,---,0.00,VWS V14.00,2013-09-18 08:16:00,
2013-09-18 04:21:00,60.2,56.6,30.19,SSW,198,0.0,1.0,88,0.00,,---,0.00,VWS V14.00,2013-09-18 08:21:00,
2013-09-18 04:26:00,60.2,56.6,30.19,SSW,198,0.0,1.0,88,0.00,,---,0.00,VWS V14.00,2013-09-18 08:26:00,
2013-09-18 04:31:00,60.2,56.6,30.19,SSW,198,0.0,1.0,88,0.00,,---,0.00,VWS V14.00,2013-09-18 08:31:00,
2013-09-18 04:36:00,60.1,56.8,30.19,SSW,198,0.0,1.0,89,0.00,,---,0.00,VWS V14.00,2013-09-18 08:36:00,
2013-09-18 04:41:00,60.0,56.8,30.18,SSW,198,0.0,0.0,89,0.00,,---,0.00,VWS V14.00,2013-09-18 08:41:00,
2013-09-18 04:46:00,59.9,56.7,30.18,SE,135,0.0,1.0,89,0.00,,---,0.00,VWS V14.00,2013-09-18 08:46:00,
2013-09-18 04:51:00,59.8,56.6,30.18,South,172,0.0,1.0,89,0.00,,---,0.00,VWS V14.00,2013-09-18 08:51:00,
2013-09-18 04:56:00,59.6,56.4,30.19,South,172,0.0,1.0,89,0.00,,---,0.00,VWS V14.00,2013-09-18 08:56:00,
2013-09-18 05:01:00,59.6,56.4,30.19,SSW,198,0.0,2.0,89,0.00,,---,0.00,VWS V14.00,2013-09-18 09:01:00,
2013-09-18 05:06:00,59.5,56.3,30.19,SSW,198,0.0,2.0,89,0.00,,---,0.00,VWS V14.00,2013-09-18 09:06:00,
2013-09-18 05:11:00,59.5,56.6,30.19,SSW,194,0.0,1.0,90,0.00,,---,0.00,VWS V14.00,2013-09-18 09:11:00,
2013-09-18 05:16:00,59.5,56.6,30.19,SSW,194,0.0,1.0,90,0.00,,---,0.00,VWS V14.00,2013-09-18 09:16:00,
2013-09-18 05:21:00,59.4,56.5,30.19,South,184,0.0,3.0,90,0.00,,---,0.00,VWS V14.00,2013-09-18 09:21:00,
2013-09-18 05:26:00,59.5,56.6,30.19,South,183,0.0,3.0,90,0.00,,---,0.00,VWS V14.00,2013-09-18 09:26:00,
2013-09-18 05:31:00,59.4,56.5,30.19,South,183,0.0,3.0,90,0.00,,---,0.00,VWS V14.00,2013-09-18 09:31:00,
2013-09-18 05:36:00,59.4,56.5,30.19,South,184,0.0,3.0,90,0.00,,---,0.00,VWS V14.00,2013-09-18 09:36:00,
2013-09-18 05:41:00,59.5,56.9,30.19,South,184,0.0,0.0,91,0.00,,---,0.00,VWS V14.00,2013-09-18 09:41:00,
2013-09-18 05:46:00,59.5,56.9,30.19,South,184,0.0,0.0,91,0.00,,---,0.00,VWS V14.00,2013-09-18 09:46:00,
2013-09-18 05:51:00,59.5,56.9,30.19,South,183,0.0,0.0,91,0.00,,---,0.00,VWS V14.00,2013-09-18 09:51:00,
2013-09-18 05:56:00,59.4,56.8,30.19,South,183,0.0,0.0,91,0.00,,---,0.00,VWS V14.00,2013-09-18 09:56:00,
2013-09-18 06:01:00,59.3,56.7,30.19,South,184,0.0,0.0,91,0.00,,---,0.00,VWS V14.00,2013-09-18 10:01:00,
2013-09-18 06:06:00,59.2,56.6,30.20,SW,215,0.0,1.0,91,0.00,,---,0.00,VWS V14.00,2013-09-18 10:06:00,
2013-09-18 06:11:00,59.0,56.1,30.20,SW,215,0.0,0.0,90,0.00,,---,0.00,VWS V14.00,2013-09-18 10:11:00,
2013-09-18 06:16:00,59.0,56.1,30.21,SW,214,0.0,1.0,90,0.00,,---,0.00,VWS V14.00,2013-09-18 10:16:00,
2013-09-18 06:21:00,59.0,56.1,30.21,SW,217,0.0,2.0,90,0.00,,---,0.00,VWS V14.00,2013-09-18 10:21:00,
2013-09-18 06:26:00,59.0,56.1,30.21,SW,217,0.0,2.0,90,0.00,,---,0.00,VWS V14.00,2013-09-18 10:26:00,
2013-09-18 06:31:00,59.0,56.4,30.21,SW,217,0.0,2.0,91,0.00,,---,0.00,VWS V14.00,2013-09-18 10:31:00,
2013-09-18 06:36:00,59.0,56.4,30.21,SW,217,0.0,2.0,91,0.00,,---,0.00,VWS V14.00,2013-09-18 10:36:00,
2013-09-18 06:41:00,59.0,56.4,30.21,SW,217,0.0,0.0,91,0.00,,---,0.00,VWS V14.00,2013-09-18 10:41:00,
2013-09-18 06:46:00,59.0,56.4,30.21,SW,217,0.0,1.0,91,0.00,,---,0.00,VWS V14.00,2013-09-18 10:46:00,
2013-09-18 06:51:00,59.0,56.4,30.22,SW,217,0.0,1.0,91,0.00,,---,0.00,VWS V14.00,2013-09-18 10:51:00,
2013-09-18 06:56:00,59.0,56.1,30.21,NNW,340,0.0,4.0,90,0.00,,---,0.00,VWS V14.00,2013-09-18 10:56:00,
2013-09-18 07:01:00,59.0,56.1,30.21,NNW,340,0.0,4.0,90,0.00,,---,0.00,VWS V14.00,2013-09-18 11:01:00,
2013-09-18 07:06:00,59.0,56.1,30.21,NNW,340,0.0,4.0,90,0.00,,---,0.00,VWS V14.00,2013-09-18 11:06:00,
2013-09-18 07:11:00,59.0,56.1,30.22,NNW,340,0.0,0.0,90,0.00,,---,0.00,VWS V14.00,2013-09-18 11:11:00,
2013-09-18 07:16:00,59.0,56.1,30.22,NNW,338,0.0,0.0,90,0.00,,---,0.00,VWS V14.00,2013-09-18 11:16:00,
2013-09-18 07:21:00,59.0,56.4,30.22,NNW,338,0.0,1.0,91,0.00,,---,0.00,VWS V14.00,2013-09-18 11:21:00,
2013-09-18 07:26:00,59.0,56.1,30.22,NNW,337,0.0,1.0,90,0.00,,---,0.00,VWS V14.00,2013-09-18 11:26:00,
2013-09-18 07:31:00,59.0,55.8,30.22,WSW,252,0.0,4.0,89,0.00,,---,0.00,VWS V14.00,2013-09-18 11:31:00,
2013-09-18 07:36:00,59.0,55.8,30.22,WSW,254,3.0,4.0,89,0.00,,---,0.00,VWS V14.00,2013-09-18 11:36:00,
2013-09-18 07:41:00,59.0,55.5,30.22,NE,38,0.0,4.0,88,0.00,,---,0.00,VWS V14.00,2013-09-18 11:41:00,
2013-09-18 07:46:00,59.0,55.5,30.22,WNW,296,0.0,4.0,88,0.00,,---,0.00,VWS V14.00,2013-09-18 11:46:00,
2013-09-18 07:51:00,59.0,55.8,30.22,WNW,296,0.0,4.0,89,0.00,,---,0.00,VWS V14.00,2013-09-18 11:51:00,
2013-09-18 07:56:00,59.0,55.8,30.23,WNW,296,0.0,4.0,89,0.00,,---,0.00,VWS V14.00,2013-09-18 11:56:00,
2013-09-18 08:01:00,59.0,55.8,30.23,WNW,301,0.0,4.0,89,0.00,,---,0.00,VWS V14.00,2013-09-18 12:01:00,
2013-09-18 08:06:00,59.0,55.8,30.23,WNW,300,0.0,4.0,89,0.00,,---,0.00,VWS V14.00,2013-09-18 12:06:00,
2013-09-18 08:11:00,59.2,56.3,30.23,WNW,300,0.0,0.0,90,0.00,,---,0.00,VWS V14.00,2013-09-18 12:11:00,
2013-09-18 08:16:00,59.3,56.1,30.23,NW,304,0.0,1.0,89,0.00,,---,0.00,VWS V14.00,2013-09-18 12:16:00,
2013-09-18 08:21:00,59.2,56.0,30.23,NW,304,0.0,1.0,89,0.00,,---,0.00,VWS V14.00,2013-09-18 12:21:00,
2013-09-18 08:26:00,59.3,56.1,30.23,NW,304,0.0,1.0,89,0.00,,---,0.00,VWS V14.00,2013-09-18 12:26:00,
2013-09-18 08:31:00,59.3,56.1,30.23,NW,304,0.0,1.0,89,0.00,,---,0.00,VWS V14.00,2013-09-18 12:31:00,
2013-09-18 08:36:00,59.4,55.8,30.23,WNW,303,0.0,3.0,88,0.00,,---,0.00,VWS V14.00,2013-09-18 12:36:00,
2013-09-18 08:41:00,59.5,56.0,30.23,NW,304,0.0,0.0,88,0.00,,---,0.00,VWS V14.00,2013-09-18 12:41:00,
2013-09-18 08:46:00,59.6,56.0,30.23,WNW,302,2.0,2.0,88,0.00,,---,0.00,VWS V14.00,2013-09-18 12:46:00,
2013-09-18 08:51:00,59.7,55.8,30.23,WNW,302,0.0,2.0,87,0.00,,---,0.00,VWS V14.00,2013-09-18 12:51:00,
2013-09-18 08:56:00,59.8,55.6,30.24,SW,216,0.0,4.0,86,0.00,,---,0.00,VWS V14.00,2013-09-18 12:56:00,
2013-09-18 09:01:00,59.9,55.7,30.24,SW,216,0.0,4.0,86,0.00,,---,0.00,VWS V14.00,2013-09-18 13:01:00,
2013-09-18 09:06:00,60.0,55.8,30.24,SSE,150,0.0,4.0,86,0.00,,---,0.00,VWS V14.00,2013-09-18 13:06:00,
2013-09-18 09:11:00,60.0,55.8,30.24,SSE,150,0.0,0.0,86,0.00,,---,0.00,VWS V14.00,2013-09-18 13:11:00,
2013-09-18 09:16:00,60.1,55.9,30.24,SSE,150,0.0,0.0,86,0.00,,---,0.00,VWS V14.00,2013-09-18 13:16:00,
2013-09-18 09:21:00,60.1,55.6,30.25,SSE,150,0.0,1.0,85,0.00,,---,0.00,VWS V14.00,2013-09-18 13:21:00,
2013-09-18 09:26:00,60.2,56.0,30.25,SSE,150,0.0,1.0,86,0.00,,---,0.00,VWS V14.00,2013-09-18 13:26:00,
2013-09-18 09:31:00,60.2,56.0,30.25,NW,317,0.0,5.0,86,0.00,,---,0.00,VWS V14.00,2013-09-18 13:31:00,
2013-09-18 09:36:00,60.3,56.1,30.25,NW,317,0.0,5.0,86,0.00,,---,0.00,VWS V14.00,2013-09-18 13:36:00,
2013-09-18 09:41:00,60.3,56.1,30.25,NNW,333,0.0,1.0,86,0.00,,---,0.00,VWS V14.00,2013-09-18 13:41:00,
2013-09-18 09:46:00,60.3,56.1,30.25,NNW,333,0.0,1.0,86,0.00,,---,0.00,VWS V14.00,2013-09-18 13:46:00,
2013-09-18 09:51:00,60.4,56.2,30.25,West,267,0.0,1.0,86,0.00,,---,0.00,VWS V14.00,2013-09-18 13:51:00,
2013-09-18 09:56:00,60.4,56.2,30.25,West,259,0.0,2.0,86,0.00,,---,0.00,VWS V14.00,2013-09-18 13:56:00,
2013-09-18 10:01:00,60.5,56.3,30.25,West,259,0.0,2.0,86,0.00,,---,0.00,VWS V14.00,2013-09-18 14:01:00,
2013-09-18 10:06:00,60.6,56.1,30.25,West,259,0.0,2.0,85,0.00,,---,0.00,VWS V14.00,2013-09-18 14:06:00,
2013-09-18 10:11:00,60.7,56.2,30.25,West,259,0.0,0.0,85,0.00,,---,0.00,VWS V14.00,2013-09-18 14:11:00,
2013-09-18 10:16:00,60.8,56.3,30.25,ENE,60,1.0,1.0,85,0.00,,---,0.00,VWS V14.00,2013-09-18 14:16:00,
2013-09-18 10:21:00,60.8,55.9,30.25,West,277,0.0,3.0,84,0.00,,---,0.00,VWS V14.00,2013-09-18 14:21:00,
2013-09-18 10:26:00,60.9,56.0,30.25,NNE,18,0.0,3.0,84,0.00,,---,0.00,VWS V14.00,2013-09-18 14:26:00,
2013-09-18 10:31:00,61.1,56.2,30.25,West,265,0.0,3.0,84,0.00,,---,0.00,VWS V14.00,2013-09-18 14:31:00,
2013-09-18 10:36:00,61.1,56.2,30.25,West,266,0.0,3.0,84,0.00,,---,0.00,VWS V14.00,2013-09-18 14:36:00,
2013-09-18 10:41:00,61.2,56.3,30.25,West,268,0.0,0.0,84,0.00,,---,0.00,VWS V14.00,2013-09-18 14:41:00,
2013-09-18 10:46:00,61.2,56.0,30.25,West,268,0.0,0.0,83,0.00,,---,0.00,VWS V14.00,2013-09-18 14:46:00,
2013-09-18 10:51:00,61.3,56.4,30.25,West,268,0.0,1.0,84,0.00,,---,0.00,VWS V14.00,2013-09-18 14:51:00,
2013-09-18 10:56:00,61.3,56.4,30.25,West,268,0.0,2.0,84,0.00,,---,0.00,VWS V14.00,2013-09-18 14:56:00,
2013-09-18 11:01:00,61.3,56.4,30.25,West,268,0.0,2.0,84,0.00,,---,0.00,VWS V14.00,2013-09-18 15:01:00,
2013-09-18 11:06:00,61.4,56.5,30.25,West,268,0.0,2.0,84,0.00,,---,0.00,VWS V14.00,2013-09-18 15:06:00,
2013-09-18 11:11:00,61.6,57.0,30.25,West,268,0.0,0.0,85,0.00,,---,0.00,VWS V14.00,2013-09-18 15:11:00,
2013-09-18 11:16:00,61.6,56.7,30.25,West,268,0.0,0.0,84,0.00,,---,0.00,VWS V14.00,2013-09-18 15:16:00,
2013-09-18 11:21:00,61.6,56.4,30.25,West,268,0.0,0.0,83,0.00,,---,0.00,VWS V14.00,2013-09-18 15:21:00,
2013-09-18 11:26:00,61.7,56.5,30.25,West,268,0.0,0.0,83,0.00,,---,0.00,VWS V14.00,2013-09-18 15:26:00,
2013-09-18 11:31:00,61.8,56.9,30.24,West,268,0.0,0.0,84,0.00,,---,0.00,VWS V14.00,2013-09-18 15:31:00,
2013-09-18 11:36:00,62.0,57.1,30.24,West,267,0.0,0.0,84,0.00,,---,0.00,VWS V14.00,2013-09-18 15:36:00,
2013-09-18 11:41:00,62.5,56.9,30.24,West,265,0.0,1.0,82,0.00,,---,0.00,VWS V14.00,2013-09-18 15:41:00,
2013-09-18 11:46:00,62.7,56.8,30.23,SSE,150,0.0,1.0,81,0.00,,---,0.00,VWS V14.00,2013-09-18 15:46:00,
2013-09-18 11:51:00,63.0,57.1,30.23,SSE,150,0.0,1.0,81,0.00,,---,0.00,VWS V14.00,2013-09-18 15:51:00,
2013-09-18 11:56:00,63.2,57.3,30.23,SSE,150,0.0,1.0,81,0.00,,---,0.00,VWS V14.00,2013-09-18 15:56:00,
2013-09-18 12:01:00,63.5,57.2,30.23,SSE,150,0.0,1.0,80,0.00,,---,0.00,VWS V14.00,2013-09-18 16:01:00,
2013-09-18 12:06:00,63.9,57.6,30.23,NE,55,0.0,1.0,80,0.00,,---,0.00,VWS V14.00,2013-09-18 16:06:00,
2013-09-18 12:11:00,64.2,58.3,30.23,NE,55,0.0,1.0,81,0.00,,---,0.00,VWS V14.00,2013-09-18 16:11:00,
2013-09-18 12:16:00,64.3,57.7,30.23,SSE,158,0.0,1.0,79,0.00,,---,0.00,VWS V14.00,2013-09-18 16:16:00,
2013-09-18 12:21:00,64.3,58.0,30.23,SSE,158,0.0,1.0,80,0.00,,---,0.00,VWS V14.00,2013-09-18 16:21:00,
2013-09-18 12:26:00,64.4,58.5,30.23,SSE,157,0.0,1.0,81,0.00,,---,0.00,VWS V14.00,2013-09-18 16:26:00,
2013-09-18 12:31:00,64.5,57.8,30.22,SW,215,0.0,4.0,79,0.00,,---,0.00,VWS V14.00,2013-09-18 16:31:00,
2013-09-18 12:36:00,64.7,58.0,30.22,SW,215,0.0,4.0,79,0.00,,---,0.00,VWS V14.00,2013-09-18 16:36:00,
2013-09-18 12:41:00,64.8,58.5,30.22,SE,130,0.0,5.0,80,0.00,,---,0.00,VWS V14.00,2013-09-18 16:41:00,
2013-09-18 12:46:00,64.8,57.8,30.22,SE,129,0.0,5.0,78,0.00,,---,0.00,VWS V14.00,2013-09-18 16:46:00,
2013-09-18 12:51:00,65.0,57.6,30.21,NNE,25,0.0,5.0,77,0.00,,---,0.00,VWS V14.00,2013-09-18 16:51:00,
2013-09-18 12:56:00,65.3,58.6,30.21,NNE,25,0.0,5.0,79,0.00,,---,0.00,VWS V14.00,2013-09-18 16:56:00,
2013-09-18 13:01:00,65.6,58.9,30.21,NNE,26,0.0,5.0,79,0.00,,---,0.00,VWS V14.00,2013-09-18 17:01:00,
2013-09-18 13:06:00,65.7,58.3,30.21,NNE,26,1.0,5.0,77,0.00,,---,0.00,VWS V14.00,2013-09-18 17:06:00,
2013-09-18 13:11:00,65.7,58.3,30.21,NNE,27,0.0,0.0,77,0.00,,---,0.00,VWS V14.00,2013-09-18 17:11:00,
2013-09-18 13:16:00,65.8,58.8,30.21,NNE,27,0.0,0.0,78,0.00,,---,0.00,VWS V14.00,2013-09-18 17:16:00,
2013-09-18 13:21:00,65.9,58.5,30.21,NNE,26,0.0,0.0,77,0.00,,---,0.00,VWS V14.00,2013-09-18 17:21:00,
2013-09-18 13:26:00,66.1,58.7,30.21,NNE,26,0.0,1.0,77,0.00,,---,0.00,VWS V14.00,2013-09-18 17:26:00,
2013-09-18 13:31:00,66.2,58.8,30.21,North,11,0.0,2.0,77,0.00,,---,0.00,VWS V14.00,2013-09-18 17:31:00,
2013-09-18 13:36:00,66.3,59.2,30.20,NNE,18,0.0,2.0,78,0.00,,---,0.00,VWS V14.00,2013-09-18 17:36:00,
2013-09-18 13:41:00,66.3,58.9,30.20,ESE,111,0.0,2.0,77,0.00,,---,0.00,VWS V14.00,2013-09-18 17:41:00,
2013-09-18 13:46:00,66.4,59.0,30.20,ESE,111,0.0,2.0,77,0.00,,---,0.00,VWS V14.00,2013-09-18 17:46:00,
2013-09-18 13:51:00,66.6,59.2,30.20,ESE,111,0.0,2.0,77,0.00,,---,0.00,VWS V14.00,2013-09-18 17:51:00,
2013-09-18 13:56:00,67.0,59.6,30.19,ESE,111,0.0,2.0,77,0.00,,---,0.00,VWS V14.00,2013-09-18 17:56:00,
2013-09-18 14:01:00,67.1,59.7,30.19,ESE,113,0.0,2.0,77,0.00,,---,0.00,VWS V14.00,2013-09-18 18:01:00,
2013-09-18 14:06:00,67.2,59.4,30.20,ESE,111,0.0,2.0,76,0.00,,---,0.00,VWS V14.00,2013-09-18 18:06:00,
2013-09-18 14:11:00,67.2,59.8,30.19,ESE,112,0.0,1.0,77,0.00,,---,0.00,VWS V14.00,2013-09-18 18:11:00,
2013-09-18 14:16:00,67.1,59.3,30.20,ESE,112,0.0,1.0,76,0.00,,---,0.00,VWS V14.00,2013-09-18 18:16:00,
2013-09-18 14:21:00,67.0,59.2,30.19,ESE,112,0.0,1.0,76,0.00,,---,0.00,VWS V14.00,2013-09-18 18:21:00,
2013-09-18 14:26:00,67.0,60.3,30.19,ESE,112,0.0,1.0,79,0.00,,---,0.00,VWS V14.00,2013-09-18 18:26:00,
2013-09-18 14:31:00,66.8,59.7,30.19,ESE,111,0.0,1.0,78,0.00,,---,0.00,VWS V14.00,2013-09-18 18:31:00,
2013-09-18 14:36:00,66.7,60.3,30.19,ESE,112,0.0,1.0,80,0.00,,---,0.00,VWS V14.00,2013-09-18 18:36:00,
2013-09-18 14:41:00,66.5,60.2,30.18,ESE,111,0.0,0.0,80,0.00,,---,0.00,VWS V14.00,2013-09-18 18:41:00,
2013-09-18 14:46:00,66.3,60.0,30.19,ESE,111,0.0,0.0,80,0.00,,---,0.00,VWS V14.00,2013-09-18 18:46:00,
2013-09-18 14:51:00,66.2,59.9,30.19,ESE,112,0.0,0.0,80,0.00,,---,0.00,VWS V14.00,2013-09-18 18:51:00,
2013-09-18 14:56:00,66.3,60.7,30.19,ESE,111,0.0,0.0,82,0.00,,---,0.00,VWS V14.00,2013-09-18 18:56:00,
2013-09-18 15:01:00,66.3,60.3,30.19,ESE,111,0.0,0.0,81,0.00,,---,0.00,VWS V14.00,2013-09-18 19:01:00,
2013-09-18 15:06:00,66.4,60.0,30.19,ESE,112,0.0,1.0,80,0.00,,---,0.00,VWS V14.00,2013-09-18 19:06:00,
2013-09-18 15:11:00,66.4,60.0,30.18,ESE,111,0.0,0.0,80,0.00,,---,0.00,VWS V14.00,2013-09-18 19:11:00,
2013-09-18 15:16:00,66.4,59.7,30.18,ESE,111,0.0,0.0,79,0.00,,---,0.00,VWS V14.00,2013-09-18 19:16:00,
2013-09-18 15:21:00,66.5,59.4,30.18,ESE,112,0.0,1.0,78,0.00,,---,0.00,VWS V14.00,2013-09-18 19:21:00,
2013-09-18 15:26:00,66.5,60.2,30.18,ESE,111,0.0,3.0,80,0.00,,---,0.00,VWS V14.00,2013-09-18 19:26:00,
2013-09-18 15:31:00,66.5,59.4,30.18,ESE,112,0.0,3.0,78,0.00,,---,0.00,VWS V14.00,2013-09-18 19:31:00,
2013-09-18 15:36:00,66.5,59.4,30.17,ESE,112,0.0,3.0,78,0.00,,---,0.00,VWS V14.00,2013-09-18 19:36:00,
2013-09-18 15:41:00,66.4,60.0,30.17,ESE,112,0.0,0.0,80,0.00,,---,0.00,VWS V14.00,2013-09-18 19:41:00,
2013-09-18 15:46:00,66.3,59.6,30.17,ESE,112,0.0,0.0,79,0.00,,---,0.00,VWS V14.00,2013-09-18 19:46:00,
2013-09-18 15:51:00,66.3,60.3,30.17,ESE,111,0.0,0.0,81,0.00,,---,0.00,VWS V14.00,2013-09-18 19:51:00,
2013-09-18 15:56:00,66.1,59.4,30.17,ESE,112,0.0,0.0,79,0.00,,---,0.00,VWS V14.00,2013-09-18 19:56:00,
2013-09-18 16:01:00,66.1,60.1,30.17,ESE,112,0.0,0.0,81,0.00,,---,0.00,VWS V14.00,2013-09-18 20:01:00,
2013-09-18 16:06:00,66.0,60.3,30.17,ESE,112,0.0,0.0,82,0.00,,---,0.00,VWS V14.00,2013-09-18 20:06:00,
2013-09-18 16:11:00,65.9,60.6,30.17,ESE,111,0.0,1.0,83,0.00,,---,0.00,VWS V14.00,2013-09-18 20:11:00,
2013-09-18 16:16:00,65.8,60.5,30.17,ESE,112,0.0,1.0,83,0.00,,---,0.00,VWS V14.00,2013-09-18 20:16:00,
2013-09-18 16:21:00,65.6,60.3,30.17,ESE,111,0.0,1.0,83,0.00,,---,0.00,VWS V14.00,2013-09-18 20:21:00,
2013-09-18 16:26:00,65.6,60.3,30.17,ESE,111,0.0,1.0,83,0.00,,---,0.00,VWS V14.00,2013-09-18 20:26:00,
2013-09-18 16:31:00,65.5,60.2,30.17,ESE,111,0.0,1.0,83,0.00,,---,0.00,VWS V14.00,2013-09-18 20:31:00,
2013-09-18 16:36:00,65.4,60.5,30.17,ESE,112,0.0,1.0,84,0.00,,---,0.00,VWS V14.00,2013-09-18 20:36:00,
2013-09-18 16:41:00,65.3,60.3,30.17,ESE,112,0.0,0.0,84,0.00,,---,0.00,VWS V14.00,2013-09-18 20:41:00,
2013-09-18 16:46:00,65.2,60.6,30.17,ESE,112,0.0,0.0,85,0.00,,---,0.00,VWS V14.00,2013-09-18 20:46:00,
2013-09-18 16:51:00,65.1,60.5,30.17,ESE,112,0.0,0.0,85,0.00,,---,0.00,VWS V14.00,2013-09-18 20:51:00,
2013-09-18 16:57:00,65.0,60.7,30.17,ESE,112,0.0,0.0,86,0.00,,---,0.00,VWS V14.00,2013-09-18 20:57:00,
2013-09-18 17:01:00,64.9,60.9,30.17,ESE,112,0.0,0.0,87,0.00,,---,0.00,VWS V14.00,2013-09-18 21:01:00,
2013-09-18 17:07:00,64.7,60.8,30.17,ESE,112,0.0,0.0,87,0.00,,---,0.00,VWS V14.00,2013-09-18 21:07:00,
2013-09-18 17:12:00,64.4,60.5,30.17,ESE,111,0.0,0.0,87,0.00,,---,0.00,VWS V14.00,2013-09-18 21:12:00,
2013-09-18 17:16:00,64.0,60.4,30.18,ESE,111,0.0,0.0,88,0.00,,---,0.00,VWS V14.00,2013-09-18 21:16:00,
2013-09-18 17:21:00,63.9,60.3,30.18,ESE,112,0.0,0.0,88,0.00,,---,0.00,VWS V14.00,2013-09-18 21:21:00,
2013-09-18 17:26:00,63.7,60.1,30.18,ESE,112,0.0,0.0,88,0.00,,---,0.00,VWS V14.00,2013-09-18 21:26:00,
2013-09-18 17:31:00,63.7,60.4,30.17,ESE,112,0.0,0.0,89,0.00,,---,0.00,VWS V14.00,2013-09-18 21:31:00,
2013-09-18 17:36:00,63.5,60.5,30.18,ESE,112,0.0,0.0,90,0.00,,---,0.00,VWS V14.00,2013-09-18 21:36:00,
2013-09-18 17:41:00,63.4,60.4,30.17,ESE,112,0.0,0.0,90,0.00,,---,0.00,VWS V14.00,2013-09-18 21:41:00,
2013-09-18 17:46:00,63.2,60.5,30.17,ESE,111,0.0,0.0,91,0.00,,---,0.00,VWS V14.00,2013-09-18 21:46:00,
2013-09-18 17:51:00,63.2,60.8,30.17,ESE,112,0.0,0.0,92,0.00,,---,0.00,VWS V14.00,2013-09-18 21:51:00,
2013-09-18 17:56:00,63.1,60.7,30.17,ESE,112,0.0,0.0,92,0.00,,---,0.00,VWS V14.00,2013-09-18 21:56:00,
2013-09-18 18:02:00,63.0,60.6,30.17,ESE,112,0.0,0.0,92,0.00,,---,0.00,VWS V14.00,2013-09-18 22:02:00,
2013-09-18 18:07:00,63.0,60.6,30.17,ESE,111,0.0,0.0,92,0.00,,---,0.00,VWS V14.00,2013-09-18 22:07:00,
2013-09-18 18:12:00,63.0,60.6,30.17,ESE,112,0.0,1.0,92,0.00,,---,0.00,VWS V14.00,2013-09-18 22:12:00,
2013-09-18 18:17:00,63.0,60.6,30.16,ESE,112,0.0,1.0,92,0.00,,---,0.00,VWS V14.00,2013-09-18 22:17:00,
2013-09-18 18:22:00,63.1,60.7,30.16,ESE,112,0.0,1.0,92,0.00,,---,0.00,VWS V14.00,2013-09-18 22:22:00,
2013-09-18 18:27:00,63.1,60.7,30.16,ESE,111,0.0,1.0,92,0.00,,---,0.00,VWS V14.00,2013-09-18 22:27:00,
2013-09-18 18:32:00,63.1,60.7,30.16,ESE,111,0.0,1.0,92,0.00,,---,0.00,VWS V14.00,2013-09-18 22:32:00,
2013-09-18 18:37:00,63.1,60.7,30.17,ESE,112,0.0,1.0,92,0.00,,---,0.00,VWS V14.00,2013-09-18 22:37:00,
2013-09-18 18:42:00,63.1,60.7,30.17,ESE,112,0.0,0.0,92,0.00,,---,0.00,VWS V14.00,2013-09-18 22:42:00,
2013-09-18 18:47:00,63.1,60.7,30.16,ESE,112,0.0,0.0,92,0.00,,---,0.00,VWS V14.00,2013-09-18 22:47:00,
2013-09-18 18:52:00,63.1,60.7,30.17,ESE,112,0.0,0.0,92,0.00,,---,0.00,VWS V14.00,2013-09-18 22:52:00,
2013-09-18 18:57:00,63.1,61.0,30.17,ESE,112,0.0,0.0,93,0.00,,---,0.00,VWS V14.00,2013-09-18 22:57:00,
2013-09-18 19:02:00,63.1,61.0,30.16,ESE,111,0.0,0.0,93,0.00,,---,0.00,VWS V14.00,2013-09-18 23:02:00,
2013-09-18 19:07:00,63.1,61.0,30.16,ESE,112,0.0,0.0,93,0.00,,---,0.00,VWS V14.00,2013-09-18 23:07:00,
2013-09-18 19:12:00,63.0,60.6,30.16,ESE,112,0.0,0.0,92,0.00,,---,0.00,VWS V14.00,2013-09-18 23:12:00,
2013-09-18 19:17:00,62.9,60.5,30.16,ESE,112,0.0,0.0,92,0.00,,---,0.00,VWS V14.00,2013-09-18 23:17:00,
2013-09-18 19:22:00,62.8,60.5,30.16,ESE,112,0.0,0.0,92,0.00,,---,0.00,VWS V14.00,2013-09-18 23:22:00,
2013-09-18 19:27:00,62.7,60.3,30.16,ESE,112,0.0,0.0,92,0.00,,---,0.00,VWS V14.00,2013-09-18 23:27:00,
2013-09-18 19:32:00,62.6,60.2,30.16,ESE,111,0.0,0.0,92,0.00,,---,0.00,VWS V14.00,2013-09-18 23:32:00,
2013-09-18 19:37:00,62.5,60.2,30.16,ESE,112,0.0,0.0,92,0.00,,---,0.00,VWS V14.00,2013-09-18 23:37:00,
2013-09-18 19:42:00,62.4,60.0,30.17,ESE,112,0.0,0.0,92,0.00,,---,0.00,VWS V14.00,2013-09-18 23:42:00,
2013-09-18 19:47:00,62.3,60.0,30.17,ESE,112,0.0,0.0,92,0.00,,---,0.00,VWS V14.00,2013-09-18 23:47:00,
2013-09-18 19:52:00,62.2,59.8,30.17,ESE,112,0.0,0.0,92,0.00,,---,0.00,VWS V14.00,2013-09-18 23:52:00,
2013-09-18 19:57:00,62.1,60.1,30.17,ESE,112,0.0,0.0,93,0.00,,---,0.00,VWS V14.00,2013-09-18 23:57:00,
2013-09-18 20:02:00,62.0,60.0,30.17,ESE,111,0.0,0.0,93,0.00,,---,0.00,VWS V14.00,2013-09-19 00:02:00,
2013-09-18 20:07:00,61.9,59.9,30.17,ESE,112,0.0,0.0,93,0.00,,---,0.00,VWS V14.00,2013-09-19 00:07:00,
2013-09-18 20:12:00,61.8,59.8,30.16,ESE,112,0.0,0.0,93,0.00,,---,0.00,VWS V14.00,2013-09-19 00:12:00,
2013-09-18 20:17:00,61.8,59.8,30.17,ESE,111,0.0,0.0,93,0.00,,---,0.00,VWS V14.00,2013-09-19 00:17:00,
2013-09-18 20:22:00,61.7,59.7,30.17,ESE,112,0.0,0.0,93,0.00,,---,0.00,VWS V14.00,2013-09-19 00:22:00,
2013-09-18 20:27:00,61.6,59.9,30.17,ESE,112,0.0,0.0,94,0.00,,---,0.00,VWS V14.00,2013-09-19 00:27:00,
2013-09-18 20:32:00,61.5,59.8,30.17,ESE,111,0.0,0.0,94,0.00,,---,0.00,VWS V14.00,2013-09-19 00:32:00,
2013-09-18 20:37:00,61.5,59.8,30.17,ESE,111,0.0,0.0,94,0.00,,---,0.00,VWS V14.00,2013-09-19 00:37:00,
2013-09-18 20:42:00,61.4,59.7,30.18,ESE,112,0.0,0.0,94,0.00,,---,0.00,VWS V14.00,2013-09-19 00:42:00,
2013-09-18 20:47:00,61.4,59.7,30.18,ESE,112,0.0,0.0,94,0.00,,---,0.00,VWS V14.00,2013-09-19 00:47:00,
2013-09-18 20:52:00,61.3,59.6,30.18,ESE,112,0.0,0.0,94,0.00,,---,0.00,VWS V14.00,2013-09-19 00:52:00,
2013-09-18 20:57:00,61.2,59.5,30.18,ESE,111,0.0,0.0,94,0.00,,---,0.00,VWS V14.00,2013-09-19 00:57:00,
2013-09-18 21:02:00,61.2,59.2,30.19,ESE,112,0.0,0.0,93,0.00,,---,0.00,VWS V14.00,2013-09-19 01:02:00,
2013-09-18 21:07:00,61.1,59.4,30.19,ESE,111,0.0,0.0,94,0.00,,---,0.00,VWS V14.00,2013-09-19 01:07:00,
2013-09-18 21:12:00,61.0,59.3,30.19,ESE,112,0.0,0.0,94,0.00,,---,0.00,VWS V14.00,2013-09-19 01:12:00,
2013-09-18 21:17:00,61.0,59.3,30.19,ESE,112,0.0,0.0,94,0.00,,---,0.00,VWS V14.00,2013-09-19 01:17:00,
2013-09-18 21:22:00,60.9,59.2,30.19,ESE,112,0.0,0.0,94,0.00,,---,0.00,VWS V14.00,2013-09-19 01:22:00,
2013-09-18 21:27:00,60.9,59.2,30.18,ESE,112,0.0,0.0,94,0.00,,---,0.00,VWS V14.00,2013-09-19 01:27:00,
2013-09-18 21:32:00,60.8,59.1,30.19,ESE,112,0.0,0.0,94,0.00,,---,0.00,VWS V14.00,2013-09-19 01:32:00,
2013-09-18 21:37:00,60.8,59.1,30.19,ESE,111,0.0,0.0,94,0.00,,---,0.00,VWS V14.00,2013-09-19 01:37:00,
2013-09-18 21:42:00,60.7,59.0,30.18,ESE,111,0.0,0.0,94,0.00,,---,0.00,VWS V14.00,2013-09-19 01:42:00,
2013-09-18 21:48:00,60.7,59.0,30.19,ESE,112,0.0,0.0,94,0.00,,---,0.00,VWS V14.00,2013-09-19 01:48:00,
2013-09-18 21:53:00,60.7,59.0,30.19,ESE,111,0.0,0.0,94,0.00,,---,0.00,VWS V14.00,2013-09-19 01:53:00,
2013-09-18 21:58:00,60.7,59.0,30.19,ESE,112,0.0,0.0,94,0.00,,---,0.00,VWS V14.00,2013-09-19 01:58:00,
2013-09-18 22:03:00,60.5,58.8,30.19,ESE,112,0.0,0.0,94,0.00,,---,0.00,VWS V14.00,2013-09-19 02:03:00,
2013-09-18 22:08:00,60.5,58.8,30.19,ESE,112,0.0,0.0,94,0.00,,---,0.00,VWS V14.00,2013-09-19 02:08:00,
2013-09-18 22:13:00,60.4,58.4,30.20,ESE,111,0.0,0.0,93,0.00,,---,0.00,VWS V14.00,2013-09-19 02:13:00,
2013-09-18 22:18:00,60.4,58.4,30.20,ESE,111,0.0,0.0,93,0.00,,---,0.00,VWS V14.00,2013-09-19 02:18:00,
2013-09-18 22:23:00,60.4,58.4,30.20,ESE,111,0.0,0.0,93,0.00,,---,0.00,VWS V14.00,2013-09-19 02:23:00,
2013-09-18 22:28:00,60.4,58.4,30.20,ESE,112,0.0,0.0,93,0.00,,---,0.00,VWS V14.00,2013-09-19 02:28:00,
2013-09-18 22:33:00,60.3,58.3,30.20,ESE,111,0.0,0.0,93,0.00,,---,0.00,VWS V14.00,2013-09-19 02:33:00,
2013-09-18 22:38:00,60.3,58.3,30.20,ESE,112,0.0,0.0,93,0.00,,---,0.00,VWS V14.00,2013-09-19 02:38:00,
2013-09-18 22:43:00,60.3,58.3,30.20,ESE,112,0.0,0.0,93,0.00,,---,0.00,VWS V14.00,2013-09-19 02:43:00,
2013-09-18 22:48:00,60.3,58.3,30.20,ESE,112,0.0,0.0,93,0.00,,---,0.00,VWS V14.00,2013-09-19 02:48:00,
2013-09-18 22:53:00,60.3,58.6,30.20,ESE,112,0.0,0.0,94,0.00,,---,0.00,VWS V14.00,2013-09-19 02:53:00,
2013-09-18 22:58:00,60.3,58.6,30.20,ESE,112,0.0,0.0,94,0.00,,---,0.00,VWS V14.00,2013-09-19 02:58:00,
2013-09-18 23:03:00,60.4,58.7,30.20,ESE,112,0.0,0.0,94,0.00,,---,0.00,VWS V14.00,2013-09-19 03:03:00,
2013-09-18 23:08:00,60.4,58.7,30.19,ESE,111,0.0,0.0,94,0.00,,---,0.00,VWS V14.00,2013-09-19 03:08:00,
2013-09-18 23:13:00,60.4,58.7,30.18,ESE,111,0.0,0.0,94,0.00,,---,0.00,VWS V14.00,2013-09-19 03:13:00,
2013-09-18 23:18:00,60.4,59.0,30.18,ESE,112,0.0,0.0,95,0.00,,---,0.00,VWS V14.00,2013-09-19 03:18:00,
2013-09-18 23:23:00,60.3,58.6,30.18,ESE,112,0.0,1.0,94,0.00,,---,0.00,VWS V14.00,2013-09-19 03:23:00,
2013-09-18 23:28:00,60.2,58.5,30.18,ESE,112,0.0,1.0,94,0.00,,---,0.00,VWS V14.00,2013-09-19 03:28:00,
2013-09-18 23:33:00,60.2,58.5,30.18,ESE,112,0.0,1.0,94,0.00,,---,0.00,VWS V14.00,2013-09-19 03:33:00,
2013-09-18 23:38:00,60.1,58.4,30.18,ESE,112,0.0,0.0,94,0.00,,---,0.00,VWS V14.00,2013-09-19 03:38:00,
2013-09-18 23:43:00,60.1,58.4,30.18,ESE,112,0.0,0.0,94,0.00,,---,0.00,VWS V14.00,2013-09-19 03:43:00,
2013-09-18 23:48:00,60.0,58.3,30.18,ESE,112,0.0,0.0,94,0.00,,---,0.00,VWS V14.00,2013-09-19 03:48:00,
2013-09-18 23:53:00,60.0,58.3,30.18,ESE,111,0.0,0.0,94,0.00,,---,0.00,VWS V14.00,2013-09-19 03:53:00,
2013-09-18 23:58:00,59.9,58.2,30.18,ESE,111,0.0,0.0,94,0.00,,---,0.00,VWS V14.00,2013-09-19 03:58:00,